This demonstration page uses our WeatherBlox Daily Observations layout. Learn more.

Hourly Observations for June 4, 2015

Temp ( °F °C ) Dew Point ( °F °C ) Humidity (%) Winds ( mph kmh ) Pressure ( in mb ) Visibility ( mi km ) Precip ( " mm )
12:15 am 00:15 Mostly Cloudy with Nearby Thunderstorms 69 20.8 63 17.1 79 79 E 7 11 29.85 1011 10 16.0934 0 0
12:35 am 00:35 Cloudy 69 20.5 64 17.5 83 83 NE 8 13 29.83 1010 10 16.0934 0 0
12:55 am 00:55 Cloudy 69 20.3 64 17.6 85 85 ENE 9 15 29.85 1011 10 16.0934 0 0
1:15 am 01:15 Cloudy with Nearby Thunderstorms 68 20.2 64 17.6 85 85 E 6 9 29.83 1010 10 16.0934 0 0
1:35 am 01:35 Mostly Cloudy with Nearby Thunderstorms 68 20 64 17.7 87 87 E 9 15 29.8 1009 10 16.0934 0 0
1:55 am 01:55 Cloudy 68 20 64 17.6 86 86 ENE 13 20 29.83 1010 10 16.0934 0 0
2:15 am 02:15 Mostly Cloudy 68 20 64 17.5 86 86 E 9 15 29.83 1010 10 16.0934 0 0
2:35 am 02:35 Mostly Cloudy 67 19.5 64 17.5 88 88 ENE 6 9 29.83 1010 10 16.0934 0 0
2:55 am 02:55 Cloudy 67 19.4 63 17.3 88 88 ENE 8 13 29.83 1010 10 16.0934 0 0
3:15 am 03:15 Cloudy with Nearby Thunderstorms 67 19.3 63 17.4 89 89 ENE 10 17 29.83 1010 10 16.0934 0 0
3:35 am 03:35 Cloudy with Nearby Thunderstorms 67 19.3 64 17.8 91 91 ENE 12 19 29.83 1010 10 16.0934 0 0
3:55 am 03:55 Cloudy 66 19.1 64 17.6 91 91 ENE 12 19 29.83 1010 10 16.0934 0 0
4:15 am 04:15 Cloudy 66 19 64 17.6 92 92 ENE 9 15 29.83 1010 10 16.0934 0 0
4:35 am 04:35 Cloudy 66 19 64 17.7 92 92 ENE 12 19 29.83 1010 10 16.0934 0 0
4:55 am 04:55 Mostly Cloudy 65 18.6 63 17.4 93 93 ENE 9 15 29.83 1010 7 11.26538 0 0
5:15 am 05:15 Partly Cloudy 65 18.1 63 17 93 93 ENE 12 19 29.85 1011 7 11.26538 0 0
5:35 am 05:35 Clear 65 18.1 63 17.1 94 94 ENE 9 15 29.85 1011 7 11.26538 0 0
5:55 am 05:55 Mostly Cloudy 65 18.5 64 17.5 94 94 SE 5 7 29.85 1011 7 11.26538 0 0
6:15 am 06:15 Mostly Cloudy with Thunderstorms 66 18.7 64 17.6 93 93 Calm 29.85 1011 7 11.26538 0 0
6:35 am 06:35 Mostly Cloudy with Thunderstorms 66 19 64 17.7 92 92 NNE 16 26 29.85 1011 4 6.43736 0.14 3.556
6:55 am 06:55 Cloudy with Light Rain 65 18.1 63 17 93 93 NE 28 44 29.74 1007 10 16.0934 0.15 3.81
7:15 am 07:15 Partly Cloudy 64 17.6 62 16.5 93 93 ENE 10 17 29.77 1008 10 16.0934 0 0
7:35 am 07:35 Partly Cloudy 64 18 62 16.6 92 92 SSE 10 17 29.85 1011 10 16.0934 0 0
7:55 am 07:55 Partly Cloudy 65 18.2 62 16.7 91 91 ESE 15 24 29.77 1008 10 16.0934 0 0
8:15 am 08:15 Sunny 65 18.1 62 16.8 92 92 SE 17 28 29.77 1008 10 16.0934 0 0
8:35 am 08:35 Sunny 65 18.6 64 17.5 93 93 SSE 13 20 29.8 1009 10 16.0934 0 0
8:55 am 08:55 Partly Cloudy 67 19.2 64 18 93 93 SE 12 19 29.8 1009 7 11.26538 0 0
9:15 am 09:15 Mostly Cloudy with Mist and Fog 67 19.6 65 18.4 93 93 SE 14 22 29.83 1010 5 8.0467 0 0
9:35 am 09:35 Cloudy 68 20 65 18.6 92 92 SE 14 22 29.83 1010 7 11.26538 0 0
9:55 am 09:55 Cloudy with Mist and Fog 68 20.1 66 18.7 92 92 SE 10 17 29.85 1011 5 8.0467 0 0
10:15 am 10:15 Cloudy 69 20.5 66 18.9 91 91 ESE 15 24 29.85 1011 7 11.26538 0 0
10:35 am 10:35 Cloudy 69 20.5 66 18.8 90 90 ESE 15 24 29.85 1011 7 11.26538 0 0
10:55 am 10:55 Cloudy 69 20.5 66 18.8 90 90 ESE 16 26 29.85 1011 7 11.26538 0 0
11:15 am 11:15 Cloudy 69 20.4 66 18.7 90 90 ESE 17 28 29.85 1011 7 11.26538 0 0
11:35 am 11:35 Cloudy 70 20.9 66 18.9 88 88 SE 15 24 29.88 1012 10 16.0934 0 0
11:55 am 11:55 Cloudy 70 21.1 66 18.8 87 87 ESE 16 26 29.88 1012 10 16.0934 0 0
12:15 pm 12:15 Cloudy 69 20.8 66 18.7 88 88 SE 15 24 29.88 1012 7 11.26538 0 0
12:35 pm 12:35 Cloudy 71 21.4 66 19 86 86 SE 12 19 29.88 1012 10 16.0934 0 0
12:55 pm 12:55 Cloudy 70 21.3 66 18.8 86 86 SE 10 17 29.88 1012 10 16.0934 0 0
1:15 pm 13:15 Cloudy 71 21.5 65 18.6 84 84 SE 12 19 29.88 1012 10 16.0934 0 0
1:35 pm 13:35 Cloudy 70 21.3 65 18.5 84 84 SE 10 17 29.91 1013 10 16.0934 0 0
1:55 pm 13:55 Cloudy 71 21.5 66 18.7 84 84 ESE 10 17 29.88 1012 10 16.0934 0 0
2:15 pm 14:15 Cloudy 70 21.3 65 18.5 84 84 SE 5 7 29.88 1012 10 16.0934 0 0
2:35 pm 14:35 Cloudy 70 21.3 65 18.6 85 85 ESE 7 11 29.88 1012 10 16.0934 0 0
2:55 pm 14:55 Cloudy 71 21.5 66 18.8 85 85 E 10 17 29.88 1012 10 16.0934 0 0
3:15 pm 15:15 Cloudy 71 21.5 66 18.8 85 85 E 10 17 29.88 1012 10 16.0934 0 0
3:35 pm 15:35 Cloudy 71 21.5 66 18.9 85 85 E 12 19 29.88 1012 10 16.0934 0 0
3:55 pm 15:55 Cloudy 71 21.8 66 19 84 84 E 14 22 29.88 1012 10 16.0934 0 0
4:15 pm 16:15 Cloudy 72 22.4 66 19 81 81 ESE 13 20 29.88 1012 10 16.0934 0 0
4:35 pm 16:35 Cloudy 75 23.8 67 19.2 76 76 ESE 20 31 29.83 1010 10 16.0934 0 0
4:55 pm 16:55 Mostly Cloudy 74 23.5 66 19 76 76 ESE 18 30 29.83 1010 10 16.0934 0 0
5:15 pm 17:15 Partly Cloudy 76 24.2 66 19.1 73 73 E 18 30 29.83 1010 10 16.0934 0 0
5:35 pm 17:35 Sunny 76 24.6 67 19.2 72 72 ESE 20 31 29.8 1009 10 16.0934 0 0
5:55 pm 17:55 Sunny 77 24.9 67 19.5 72 72 ESE 17 28 29.8 1009 10 16.0934 0 0
6:15 pm 18:15 Partly Cloudy 76 24.5 67 19.5 74 74 ESE 14 22 29.8 1009 10 16.0934 0 0
6:35 pm 18:35 Partly Cloudy 77 25 68 19.8 73 73 E 10 17 29.8 1009 10 16.0934 0 0
6:55 pm 18:55 Cloudy 76 24.5 68 20 76 76 E 10 17 29.83 1010 10 16.0934 0 0
7:15 pm 19:15 Cloudy 75 24.1 68 20 78 78 E 8 13 29.83 1010 10 16.0934 0 0
7:35 pm 19:35 Cloudy 75 23.8 68 20 79 79 E 10 17 29.83 1010 10 16.0934 0 0
7:55 pm 19:55 Cloudy 74 23.3 67 19.7 80 80 ENE 12 19 29.83 1010 10 16.0934 0 0
8:15 pm 20:15 Cloudy 72 22.3 67 19.5 84 84 ENE 12 19 29.85 1011 10 16.0934 0 0
8:35 pm 20:35 Mostly Cloudy with Nearby Thunderstorms 71 21.7 67 19.2 86 86 ENE 10 17 29.85 1011 10 16.0934 0 0
8:55 pm 20:55 Partly Cloudy 70 21.1 66 19.1 88 88 ENE 9 15 29.85 1011 10 16.0934 0 0
9:15 pm 21:15 Mostly Cloudy with Nearby Thunderstorms 70 21 66 19.1 89 89 ENE 13 20 29.88 1012 10 16.0934 0 0
9:35 pm 21:35 Cloudy 69 20.8 65 18.6 87 87 ENE 13 20 29.85 1011 10 16.0934 0 0
9:55 pm 21:55 Cloudy 69 20.5 64 17.7 84 84 ENE 14 22 29.88 1012 10 16.0934 0 0
10:15 pm 22:15 Cloudy 69 20.3 64 17.5 84 84 ENE 13 20 29.88 1012 10 16.0934 0 0
10:35 pm 22:35 Cloudy with Nearby Thunderstorms 68 20.2 64 17.5 85 85 ENE 12 19 29.91 1013 10 16.0934 0 0
10:55 pm 22:55 Cloudy with Thunderstorms 68 20.1 64 17.7 86 86 ENE 14 22 29.88 1012 10 16.0934 0 0
11:15 pm 23:15 Cloudy 68 19.8 63 17.2 85 85 ENE 23 37 29.88 1012 10 16.0934 0 0
11:35 pm 23:35 Cloudy with Light Thunderstorms 65 18.5 63 17.2 92 92 E 12 19 29.94 1014 2.5 4.02335 0.2 5.08
11:55 pm 23:55 Cloudy with Heavy Thunderstorms 65 18.1 62 16.7 92 92 ESE 8 13 30 1016 4 6.43736 0.31 7.874

Powered by AerisWeather